owner,sensor,date,latitude,longitude,vertical_datum,sea_water_practical_salinity,qcFlag 
DISL,ioos:station:DISL:BSCA:1,2015-01-01T00:00:00Z,30.3288,-87.8293,2.052,8.42,1111122 
DISL,ioos:station:DISL:BSCA:1,2015-01-01T00:30:00Z,30.3288,-87.8293,2.054,8.83,1111122 
DISL,ioos:station:DISL:BSCA:1,2015-01-01T01:00:00Z,30.3288,-87.8293,2.065,9.0,1111122 
DISL,ioos:station:DISL:BSCA:1,2015-01-01T01:30:00Z,30.3288,-87.8293,2.088,8.35,1111122 
DISL,ioos:station:DISL:BSCA:1,2015-01-01T02:00:00Z,30.3288,-87.8293,2.074,8.18,1111122 
DISL,ioos:station:DISL:BSCA:1,2015-01-01T02:30:00Z,30.3288,-87.8293,2.066,8.22,1111122 
DISL,ioos:station:DISL:BSCA:1,2015-01-01T03:00:00Z,30.3288,-87.8293,1.952,22.35,1111122 
DISL,ioos:station:DISL:BSCA:1,2015-01-01T03:30:00Z,30.3288,-87.8293,1.988,8.15,1111122 
DISL,ioos:station:DISL:BSCA:1,2015-01-01T04:00:00Z,30.3288,-87.8293,1.928,9.14,1111122 
DISL,ioos:station:DISL:BSCA:1,2015-01-01T04:30:00Z,30.3288,-87.8293,1.899,8.65,1111122 
DISL,ioos:station:DISL:BSCA:1,2015-01-01T05:00:00Z,30.3288,-87.8293,1.848,22.35,1111122 
DISL,ioos:station:DISL:BSCA:1,2015-01-01T05:30:00Z,30.3288,-87.8293,1.847,9.19,1111122 
DISL,ioos:station:DISL:BSCA:1,2015-01-01T06:00:00Z,30.3288,-87.8293,1.855,8.55,1111122 
DISL,ioos:station:DISL:BSCA:1,2015-01-01T06:30:00Z,30.3288,-87.8293,1.856,8.53,1111122 
DISL,ioos:station:DISL:BSCA:1,2015-01-01T07:00:00Z,30.3288,-87.8293,1.854,8.36,1111122 
DISL,ioos:station:DISL:BSCA:1,2015-01-01T07:30:00Z,30.3288,-87.8293,1.829,8.78,1111122 
DISL,ioos:station:DISL:BSCA:1,2015-01-01T08:00:00Z,30.3288,-87.8293,1.76,22.3,1111122 
DISL,ioos:station:DISL:BSCA:1,2015-01-01T08:30:00Z,30.3288,-87.8293,1.765,7.86,1111122 
DISL,ioos:station:DISL:BSCA:1,2015-01-01T09:00:00Z,30.3288,-87.8293,1.712,8.56,1111122 
DISL,ioos:station:DISL:BSCA:1,2015-01-01T09:30:00Z,30.3288,-87.8293,1.672,8.16,1111122 
DISL,ioos:station:DISL:BSCA:1,2015-01-01T10:00:00Z,30.3288,-87.8293,1.614,8.2,1111122 
DISL,ioos:station:DISL:BSCA:1,2015-01-01T10:30:00Z,30.3288,-87.8293,1.623,8.22,1111122 
DISL,ioos:station:DISL:BSCA:1,2015-01-01T11:00:00Z,30.3288,-87.8293,1.579,8.21,1111122 
DISL,ioos:station:DISL:BSCA:1,2015-01-01T11:30:00Z,30.3288,-87.8293,1.508,22.19,1111122 
DISL,ioos:station:DISL:BSCA:1,2015-01-01T12:00:00Z,30.3288,-87.8293,1.536,8.26,1111122 
DISL,ioos:station:DISL:BSCA:1,2015-01-01T12:30:00Z,30.3288,-87.8293,1.545,8.04,1111122 
DISL,ioos:station:DISL:BSCA:1,2015-01-01T13:00:00Z,30.3288,-87.8293,1.542,8.51,1111122 
DISL,ioos:station:DISL:BSCA:1,2015-01-01T13:30:00Z,30.3288,-87.8293,1.538,10.1,1111122 
DISL,ioos:station:DISL:BSCA:1,2015-01-01T14:00:00Z,30.3288,-87.8293,1.566,10.5,1111122 
DISL,ioos:station:DISL:BSCA:1,2015-01-01T14:30:00Z,30.3288,-87.8293,1.613,9.37,1111122 
DISL,ioos:station:DISL:BSCA:1,2015-01-01T15:00:00Z,30.3288,-87.8293,1.638,10.27,1111122 
DISL,ioos:station:DISL:BSCA:1,2015-01-01T15:30:00Z,30.3288,-87.8293,1.699,9.27,1111122 
DISL,ioos:station:DISL:BSCA:1,2015-01-01T16:00:00Z,30.3288,-87.8293,1.735,9.57,1111122 
DISL,ioos:station:DISL:BSCA:1,2015-01-01T16:30:00Z,30.3288,-87.8293,1.775,8.46,1111122 
DISL,ioos:station:DISL:BSCA:1,2015-01-01T17:00:00Z,30.3288,-87.8293,1.819,8.58,1111122 
DISL,ioos:station:DISL:BSCA:1,2015-01-01T17:30:00Z,30.3288,-87.8293,1.846,8.38,1111122 
DISL,ioos:station:DISL:BSCA:1,2015-01-01T18:00:00Z,30.3288,-87.8293,1.878,9.04,1111122 
DISL,ioos:station:DISL:BSCA:1,2015-01-01T18:30:00Z,30.3288,-87.8293,1.899,8.63,1111122 
DISL,ioos:station:DISL:BSCA:1,2015-01-01T19:00:00Z,30.3288,-87.8293,1.934,8.48,1111122 
DISL,ioos:station:DISL:BSCA:1,2015-01-01T19:30:00Z,30.3288,-87.8293,1.972,7.9,1111122 
DISL,ioos:station:DISL:BSCA:1,2015-01-01T20:00:00Z,30.3288,-87.8293,2.003,8.36,1111122 
DISL,ioos:station:DISL:BSCA:1,2015-01-01T20:30:00Z,30.3288,-87.8293,2.029,8.43,1111122 
DISL,ioos:station:DISL:BSCA:1,2015-01-01T21:00:00Z,30.3288,-87.8293,2.063,8.19,1111122 
DISL,ioos:station:DISL:BSCA:1,2015-01-01T21:30:00Z,30.3288,-87.8293,2.096,8.08,1111122 
DISL,ioos:station:DISL:BSCA:1,2015-01-01T22:00:00Z,30.3288,-87.8293,2.13,8.0,1111122 
DISL,ioos:station:DISL:BSCA:1,2015-01-01T22:30:00Z,30.3288,-87.8293,2.154,8.13,1111122 
DISL,ioos:station:DISL:BSCA:1,2015-01-01T23:00:00Z,30.3288,-87.8293,2.162,8.42,1111122 
DISL,ioos:station:DISL:BSCA:1,2015-01-01T23:30:00Z,30.3288,-87.8293,2.171,8.74,1111122 
DISL,ioos:station:DISL:BSCA:1,2015-01-02T00:00:00Z,30.3288,-87.8293,2.196,7.25,1111122 
DISL,ioos:station:DISL:BSCA:1,2015-01-02T00:30:00Z,30.3288,-87.8293,2.212,7.1,1111122 
DISL,ioos:station:DISL:BSCA:1,2015-01-02T01:00:00Z,30.3288,-87.8293,2.205,7.29,1111122 
DISL,ioos:station:DISL:BSCA:1,2015-01-02T01:30:00Z,30.3288,-87.8293,2.212,7.22,1111122 
DISL,ioos:station:DISL:BSCA:1,2015-01-02T02:00:00Z,30.3288,-87.8293,2.204,7.04,1111122 
DISL,ioos:station:DISL:BSCA:1,2015-01-02T02:30:00Z,30.3288,-87.8293,2.189,7.25,1111122 
DISL,ioos:station:DISL:BSCA:1,2015-01-02T03:00:00Z,30.3288,-87.8293,2.161,8.11,1111122 
DISL,ioos:station:DISL:BSCA:1,2015-01-02T03:30:00Z,30.3288,-87.8293,2.134,7.28,1111122 
DISL,ioos:station:DISL:BSCA:1,2015-01-02T04:00:00Z,30.3288,-87.8293,2.11,7.23,1111122 
DISL,ioos:station:DISL:BSCA:1,2015-01-02T04:30:00Z,30.3288,-87.8293,2.063,7.53,1111122 
DISL,ioos:station:DISL:BSCA:1,2015-01-02T05:00:00Z,30.3288,-87.8293,2.009,7.67,1111122 
DISL,ioos:station:DISL:BSCA:1,2015-01-02T05:30:00Z,30.3288,-87.8293,1.942,8.92,1111122 
DISL,ioos:station:DISL:BSCA:1,2015-01-02T06:00:00Z,30.3288,-87.8293,1.907,9.15,1111122 
DISL,ioos:station:DISL:BSCA:1,2015-01-02T06:30:00Z,30.3288,-87.8293,1.871,9.57,1111122 
DISL,ioos:station:DISL:BSCA:1,2015-01-02T07:00:00Z,30.3288,-87.8293,1.862,8.37,1111122 
DISL,ioos:station:DISL:BSCA:1,2015-01-02T07:30:00Z,30.3288,-87.8293,1.831,8.45,1111122 
DISL,ioos:station:DISL:BSCA:1,2015-01-02T08:00:00Z,30.3288,-87.8293,1.82,8.06,1111122 
DISL,ioos:station:DISL:BSCA:1,2015-01-02T08:30:00Z,30.3288,-87.8293,1.79,8.21,1111122 
DISL,ioos:station:DISL:BSCA:1,2015-01-02T09:00:00Z,30.3288,-87.8293,1.768,8.09,1111122 
DISL,ioos:station:DISL:BSCA:1,2015-01-02T09:30:00Z,30.3288,-87.8293,1.745,8.39,1111122 
DISL,ioos:station:DISL:BSCA:1,2015-01-02T10:00:00Z,30.3288,-87.8293,1.707,9.81,1111122 
DISL,ioos:station:DISL:BSCA:1,2015-01-02T10:30:00Z,30.3288,-87.8293,1.701,8.34,1111122 
DISL,ioos:station:DISL:BSCA:1,2015-01-02T11:00:00Z,30.3288,-87.8293,1.627,21.76,1111122 
DISL,ioos:station:DISL:BSCA:1,2015-01-02T11:30:00Z,30.3288,-87.8293,1.62,21.8,1111122 
DISL,ioos:station:DISL:BSCA:1,2015-01-02T12:00:00Z,30.3288,-87.8293,1.635,8.45,1111122 
DISL,ioos:station:DISL:BSCA:1,2015-01-02T12:30:00Z,30.3288,-87.8293,1.637,8.1,1111122 
DISL,ioos:station:DISL:BSCA:1,2015-01-02T13:00:00Z,30.3288,-87.8293,1.638,8.37,1111122 
DISL,ioos:station:DISL:BSCA:1,2015-01-02T13:30:00Z,30.3288,-87.8293,1.662,8.11,1111122 
DISL,ioos:station:DISL:BSCA:1,2015-01-02T14:00:00Z,30.3288,-87.8293,1.687,8.2,1111122 
DISL,ioos:station:DISL:BSCA:1,2015-01-02T14:30:00Z,30.3288,-87.8293,1.703,9.14,1111122 
DISL,ioos:station:DISL:BSCA:1,2015-01-02T15:00:00Z,30.3288,-87.8293,1.756,7.92,1111122 
DISL,ioos:station:DISL:BSCA:1,2015-01-02T15:30:00Z,30.3288,-87.8293,1.776,7.68,1111122 
DISL,ioos:station:DISL:BSCA:1,2015-01-02T16:00:00Z,30.3288,-87.8293,1.805,7.84,1111122 
DISL,ioos:station:DISL:BSCA:1,2015-01-02T16:30:00Z,30.3288,-87.8293,1.827,7.63,1111122 
DISL,ioos:station:DISL:BSCA:1,2015-01-02T17:00:00Z,30.3288,-87.8293,1.856,7.87,1111122 
DISL,ioos:station:DISL:BSCA:1,2015-01-02T17:30:00Z,30.3288,-87.8293,1.887,7.94,1111122 
DISL,ioos:station:DISL:BSCA:1,2015-01-02T18:00:00Z,30.3288,-87.8293,1.91,8.08,1111122 
DISL,ioos:station:DISL:BSCA:1,2015-01-02T18:30:00Z,30.3288,-87.8293,1.932,8.03,1111122 
DISL,ioos:station:DISL:BSCA:1,2015-01-02T19:00:00Z,30.3288,-87.8293,1.963,8.17,1111122 
DISL,ioos:station:DISL:BSCA:1,2015-01-02T19:30:00Z,30.3288,-87.8293,2.003,8.22,1111122 
DISL,ioos:station:DISL:BSCA:1,2015-01-02T20:00:00Z,30.3288,-87.8293,2.024,9.06,1111122 
DISL,ioos:station:DISL:BSCA:1,2015-01-02T20:30:00Z,30.3288,-87.8293,2.067,8.12,1111122 
DISL,ioos:station:DISL:BSCA:1,2015-01-02T21:00:00Z,30.3288,-87.8293,2.088,7.7,1111122 
DISL,ioos:station:DISL:BSCA:1,2015-01-02T21:30:00Z,30.3288,-87.8293,2.113,7.46,1111122 
DISL,ioos:station:DISL:BSCA:1,2015-01-02T22:00:00Z,30.3288,-87.8293,2.122,8.0,1111122 
DISL,ioos:station:DISL:BSCA:1,2015-01-02T22:30:00Z,30.3288,-87.8293,2.153,8.19,1111122 
DISL,ioos:station:DISL:BSCA:1,2015-01-02T23:00:00Z,30.3288,-87.8293,2.158,8.77,1111122 
DISL,ioos:station:DISL:BSCA:1,2015-01-02T23:30:00Z,30.3288,-87.8293,2.179,8.78,1111122 
DISL,ioos:station:DISL:BSCA:1,2015-01-03T00:00:00Z,30.3288,-87.8293,2.187,9.83,1111122 
DISL,ioos:station:DISL:BSCA:1,2015-01-03T00:30:00Z,30.3288,-87.8293,2.21,9.21,1111122 
DISL,ioos:station:DISL:BSCA:1,2015-01-03T01:00:00Z,30.3288,-87.8293,2.211,8.8,1111122 
DISL,ioos:station:DISL:BSCA:1,2015-01-03T01:30:00Z,30.3288,-87.8293,2.233,8.54,1111122 
DISL,ioos:station:DISL:BSCA:1,2015-01-03T02:00:00Z,30.3288,-87.8293,2.235,8.41,1111122 
DISL,ioos:station:DISL:BSCA:1,2015-01-03T02:30:00Z,30.3288,-87.8293,2.234,8.3,1111122 
DISL,ioos:station:DISL:BSCA:1,2015-01-03T03:00:00Z,30.3288,-87.8293,2.216,7.7,1111122 
DISL,ioos:station:DISL:BSCA:1,2015-01-03T03:30:00Z,30.3288,-87.8293,2.204,8.0,1111122 
DISL,ioos:station:DISL:BSCA:1,2015-01-03T04:00:00Z,30.3288,-87.8293,2.207,7.83,1111122 
DISL,ioos:station:DISL:BSCA:1,2015-01-03T04:30:00Z,30.3288,-87.8293,2.185,7.5,1111122 
DISL,ioos:station:DISL:BSCA:1,2015-01-03T05:00:00Z,30.3288,-87.8293,2.149,8.88,1111122 
DISL,ioos:station:DISL:BSCA:1,2015-01-03T05:30:00Z,30.3288,-87.8293,2.125,8.99,1111122 
DISL,ioos:station:DISL:BSCA:1,2015-01-03T06:00:00Z,30.3288,-87.8293,2.081,9.32,1111122 
DISL,ioos:station:DISL:BSCA:1,2015-01-03T06:30:00Z,30.3288,-87.8293,2.055,8.18,1111122 
DISL,ioos:station:DISL:BSCA:1,2015-01-03T07:00:00Z,30.3288,-87.8293,2.01,8.87,1111122 
DISL,ioos:station:DISL:BSCA:1,2015-01-03T07:30:00Z,30.3288,-87.8293,1.973,9.6,1111122 
DISL,ioos:station:DISL:BSCA:1,2015-01-03T08:00:00Z,30.3288,-87.8293,1.943,8.67,1111122 
DISL,ioos:station:DISL:BSCA:1,2015-01-03T08:30:00Z,30.3288,-87.8293,1.895,9.57,1111122 
DISL,ioos:station:DISL:BSCA:1,2015-01-03T09:00:00Z,30.3288,-87.8293,1.858,9.64,1111122 
DISL,ioos:station:DISL:BSCA:1,2015-01-03T09:30:00Z,30.3288,-87.8293,1.833,8.92,1111122 
DISL,ioos:station:DISL:BSCA:1,2015-01-03T10:00:00Z,30.3288,-87.8293,1.817,8.11,1111122 
DISL,ioos:station:DISL:BSCA:1,2015-01-03T10:30:00Z,30.3288,-87.8293,1.793,8.4,1111122 
DISL,ioos:station:DISL:BSCA:1,2015-01-03T11:00:00Z,30.3288,-87.8293,1.77,8.89,1111122 
DISL,ioos:station:DISL:BSCA:1,2015-01-03T11:30:00Z,30.3288,-87.8293,1.746,9.79,1111122 
DISL,ioos:station:DISL:BSCA:1,2015-01-03T12:00:00Z,30.3288,-87.8293,1.738,10.03,1111122 
DISL,ioos:station:DISL:BSCA:1,2015-01-03T12:30:00Z,30.3288,-87.8293,1.719,9.48,1111122 
DISL,ioos:station:DISL:BSCA:1,2015-01-03T13:00:00Z,30.3288,-87.8293,1.735,9.23,1111122 
DISL,ioos:station:DISL:BSCA:1,2015-01-03T13:30:00Z,30.3288,-87.8293,1.732,8.47,1111122 
DISL,ioos:station:DISL:BSCA:1,2015-01-03T14:00:00Z,30.3288,-87.8293,1.741,9.03,1111122 
DISL,ioos:station:DISL:BSCA:1,2015-01-03T14:30:00Z,30.3288,-87.8293,1.761,8.84,1111122 
DISL,ioos:station:DISL:BSCA:1,2015-01-03T15:00:00Z,30.3288,-87.8293,1.778,8.96,1111122 
DISL,ioos:station:DISL:BSCA:1,2015-01-03T15:30:00Z,30.3288,-87.8293,1.801,8.73,1111122 
DISL,ioos:station:DISL:BSCA:1,2015-01-03T16:00:00Z,30.3288,-87.8293,1.833,8.39,1111122 
DISL,ioos:station:DISL:BSCA:1,2015-01-03T16:30:00Z,30.3288,-87.8293,1.863,8.73,1111122 
DISL,ioos:station:DISL:BSCA:1,2015-01-03T17:00:00Z,30.3288,-87.8293,1.899,7.89,1111122 
DISL,ioos:station:DISL:BSCA:1,2015-01-03T17:30:00Z,30.3288,-87.8293,1.922,7.98,1111122 
DISL,ioos:station:DISL:BSCA:1,2015-01-03T18:00:00Z,30.3288,-87.8293,1.96,7.77,1111122 
DISL,ioos:station:DISL:BSCA:1,2015-01-03T18:30:00Z,30.3288,-87.8293,1.961,8.87,1111122 
DISL,ioos:station:DISL:BSCA:1,2015-01-03T19:00:00Z,30.3288,-87.8293,1.996,9.28,1111122 
DISL,ioos:station:DISL:BSCA:1,2015-01-03T19:30:00Z,30.3288,-87.8293,2.025,9.18,1111122 
DISL,ioos:station:DISL:BSCA:1,2015-01-03T20:00:00Z,30.3288,-87.8293,2.074,9.03,1111122 
DISL,ioos:station:DISL:BSCA:1,2015-01-03T20:30:00Z,30.3288,-87.8293,2.179,8.95,1111122 
DISL,ioos:station:DISL:BSCA:1,2015-01-03T21:00:00Z,30.3288,-87.8293,2.163,7.6,1111122 
DISL,ioos:station:DISL:BSCA:1,2015-01-03T21:30:00Z,30.3288,-87.8293,2.182,7.98,1111122 
DISL,ioos:station:DISL:BSCA:1,2015-01-03T22:00:00Z,30.3288,-87.8293,2.074,9.32,1111122 
DISL,ioos:station:DISL:BSCA:1,2015-01-03T22:30:00Z,30.3288,-87.8293,2.261,9.24,1111122 
DISL,ioos:station:DISL:BSCA:1,2015-01-03T23:00:00Z,30.3288,-87.8293,2.302,9.76,1111122 
DISL,ioos:station:DISL:BSCA:1,2015-01-03T23:30:00Z,30.3288,-87.8293,2.363,8.13,1111122 
DISL,ioos:station:DISL:BSCA:1,2015-01-04T00:00:00Z,30.3288,-87.8293,2.377,9.58,1111122 
DISL,ioos:station:DISL:BSCA:1,2015-01-04T00:30:00Z,30.3288,-87.8293,2.405,9.39,1111122 
DISL,ioos:station:DISL:BSCA:1,2015-01-04T01:00:00Z,30.3288,-87.8293,2.362,21.87,1111122 
DISL,ioos:station:DISL:BSCA:1,2015-01-04T01:30:00Z,30.3288,-87.8293,2.446,8.28,1111122 
DISL,ioos:station:DISL:BSCA:1,2015-01-04T02:00:00Z,30.3288,-87.8293,2.448,9.22,1111122 
DISL,ioos:station:DISL:BSCA:1,2015-01-04T02:30:00Z,30.3288,-87.8293,2.456,8.22,1111122 
DISL,ioos:station:DISL:BSCA:1,2015-01-04T03:00:00Z,30.3288,-87.8293,2.456,8.85,1111122 
DISL,ioos:station:DISL:BSCA:1,2015-01-04T03:30:00Z,30.3288,-87.8293,2.448,9.16,1111122 
DISL,ioos:station:DISL:BSCA:1,2015-01-04T04:00:00Z,30.3288,-87.8293,2.446,9.13,1111122 
DISL,ioos:station:DISL:BSCA:1,2015-01-04T04:30:00Z,30.3288,-87.8293,2.437,8.62,1111122 
DISL,ioos:station:DISL:BSCA:1,2015-01-04T05:00:00Z,30.3288,-87.8293,2.395,9.28,1111122 
DISL,ioos:station:DISL:BSCA:1,2015-01-04T05:30:00Z,30.3288,-87.8293,2.413,9.23,1111122 
DISL,ioos:station:DISL:BSCA:1,2015-01-04T06:00:00Z,30.3288,-87.8293,2.396,8.64,1111122 
DISL,ioos:station:DISL:BSCA:1,2015-01-04T06:30:00Z,30.3288,-87.8293,2.359,8.39,1111122 
DISL,ioos:station:DISL:BSCA:1,2015-01-04T07:00:00Z,30.3288,-87.8293,2.308,8.62,1111122 
DISL,ioos:station:DISL:BSCA:1,2015-01-04T07:30:00Z,30.3288,-87.8293,2.315,8.12,1111122 
DISL,ioos:station:DISL:BSCA:1,2015-01-04T08:00:00Z,30.3288,-87.8293,2.204,8.1,1111122 
DISL,ioos:station:DISL:BSCA:1,2015-01-04T08:30:00Z,30.3288,-87.8293,2.211,8.16,1111122 
DISL,ioos:station:DISL:BSCA:1,2015-01-04T09:00:00Z,30.3288,-87.8293,2.173,8.33,1111122 
DISL,ioos:station:DISL:BSCA:1,2015-01-04T09:30:00Z,30.3288,-87.8293,2.122,8.5,1111122 
DISL,ioos:station:DISL:BSCA:1,2015-01-04T10:00:00Z,30.3288,-87.8293,2.126,8.17,1111122 
DISL,ioos:station:DISL:BSCA:1,2015-01-04T10:30:00Z,30.3288,-87.8293,2.069,8.22,1111122 
DISL,ioos:station:DISL:BSCA:1,2015-01-04T11:00:00Z,30.3288,-87.8293,2.048,8.41,1111122 
DISL,ioos:station:DISL:BSCA:1,2015-01-04T11:30:00Z,30.3288,-87.8293,2.012,8.46,1111122 
DISL,ioos:station:DISL:BSCA:1,2015-01-04T12:00:00Z,30.3288,-87.8293,1.968,8.32,1111122 
DISL,ioos:station:DISL:BSCA:1,2015-01-04T12:30:00Z,30.3288,-87.8293,1.934,8.3,1111122 
DISL,ioos:station:DISL:BSCA:1,2015-01-04T13:00:00Z,30.3288,-87.8293,1.881,9.4,1111122 
DISL,ioos:station:DISL:BSCA:1,2015-01-04T13:30:00Z,30.3288,-87.8293,1.835,9.69,1111122 
DISL,ioos:station:DISL:BSCA:1,2015-01-04T14:00:00Z,30.3288,-87.8293,1.814,8.67,1111122 
DISL,ioos:station:DISL:BSCA:1,2015-01-04T14:30:00Z,30.3288,-87.8293,1.789,9.51,1111122 
DISL,ioos:station:DISL:BSCA:1,2015-01-04T15:00:00Z,30.3288,-87.8293,1.774,9.41,1111122 
DISL,ioos:station:DISL:BSCA:1,2015-01-04T15:30:00Z,30.3288,-87.8293,1.772,9.42,1111122 
DISL,ioos:station:DISL:BSCA:1,2015-01-04T16:00:00Z,30.3288,-87.8293,1.749,9.4,1111122 
DISL,ioos:station:DISL:BSCA:1,2015-01-04T16:30:00Z,30.3288,-87.8293,1.766,9.38,1111122 
DISL,ioos:station:DISL:BSCA:1,2015-01-04T17:00:00Z,30.3288,-87.8293,1.752,10.39,1111122 
DISL,ioos:station:DISL:BSCA:1,2015-01-04T17:30:00Z,30.3288,-87.8293,1.779,9.9,1111122 
DISL,ioos:station:DISL:BSCA:1,2015-01-04T18:00:00Z,30.3288,-87.8293,1.783,10.25,1111122 
DISL,ioos:station:DISL:BSCA:1,2015-01-04T18:30:00Z,30.3288,-87.8293,1.803,9.51,1111122 
DISL,ioos:station:DISL:BSCA:1,2015-01-04T19:00:00Z,30.3288,-87.8293,1.858,9.69,1111122 
DISL,ioos:station:DISL:BSCA:1,2015-01-04T19:30:00Z,30.3288,-87.8293,1.859,9.79,1111122 
DISL,ioos:station:DISL:BSCA:1,2015-01-04T20:00:00Z,30.3288,-87.8293,1.888,10.0,1111122 
DISL,ioos:station:DISL:BSCA:1,2015-01-04T20:30:00Z,30.3288,-87.8293,1.886,9.68,1111122 
DISL,ioos:station:DISL:BSCA:1,2015-01-04T21:00:00Z,30.3288,-87.8293,1.906,9.69,1111122 
DISL,ioos:station:DISL:BSCA:1,2015-01-04T21:30:00Z,30.3288,-87.8293,1.901,10.32,1111122 
DISL,ioos:station:DISL:BSCA:1,2015-01-04T22:00:00Z,30.3288,-87.8293,1.927,9.55,1111122 
DISL,ioos:station:DISL:BSCA:1,2015-01-04T22:30:00Z,30.3288,-87.8293,1.92,9.51,1111122 
DISL,ioos:station:DISL:BSCA:1,2015-01-04T23:00:00Z,30.3288,-87.8293,1.918,19.7,1111122 
DISL,ioos:station:DISL:BSCA:1,2015-01-04T23:30:00Z,30.3288,-87.8293,1.931,18.92,1111122 
DISL,ioos:station:DISL:BSCA:1,2015-01-05T00:00:00Z,30.3288,-87.8293,2.01,8.34,1111122 
DISL,ioos:station:DISL:BSCA:1,2015-01-05T00:30:00Z,30.3288,-87.8293,2.059,8.18,1111122 
DISL,ioos:station:DISL:BSCA:1,2015-01-05T01:00:00Z,30.3288,-87.8293,2.103,10.0,1111122 
DISL,ioos:station:DISL:BSCA:1,2015-01-05T01:30:00Z,30.3288,-87.8293,2.177,9.06,1111122 
DISL,ioos:station:DISL:BSCA:1,2015-01-05T02:00:00Z,30.3288,-87.8293,2.238,8.96,1111122 
DISL,ioos:station:DISL:BSCA:1,2015-01-05T02:30:00Z,30.3288,-87.8293,2.281,8.69,1111122 
DISL,ioos:station:DISL:BSCA:1,2015-01-05T03:00:00Z,30.3288,-87.8293,2.26,9.0,1111122 
DISL,ioos:station:DISL:BSCA:1,2015-01-05T03:30:00Z,30.3288,-87.8293,2.263,8.49,1111122 
DISL,ioos:station:DISL:BSCA:1,2015-01-05T04:00:00Z,30.3288,-87.8293,2.19,8.34,1111122 
DISL,ioos:station:DISL:BSCA:1,2015-01-05T04:30:00Z,30.3288,-87.8293,2.154,7.83,1111122 
DISL,ioos:station:DISL:BSCA:1,2015-01-05T05:00:00Z,30.3288,-87.8293,2.127,7.94,1111122 
DISL,ioos:station:DISL:BSCA:1,2015-01-05T05:30:00Z,30.3288,-87.8293,2.066,7.94,1111122 
DISL,ioos:station:DISL:BSCA:1,2015-01-05T06:00:00Z,30.3288,-87.8293,2.04,7.94,1111122 
DISL,ioos:station:DISL:BSCA:1,2015-01-05T06:30:00Z,30.3288,-87.8293,2.046,7.83,1111122 
DISL,ioos:station:DISL:BSCA:1,2015-01-05T07:00:00Z,30.3288,-87.8293,1.986,8.46,1111122 
DISL,ioos:station:DISL:BSCA:1,2015-01-05T07:30:00Z,30.3288,-87.8293,1.96,8.9,1111122 
DISL,ioos:station:DISL:BSCA:1,2015-01-05T08:00:00Z,30.3288,-87.8293,1.918,8.57,1111122 
DISL,ioos:station:DISL:BSCA:1,2015-01-05T08:30:00Z,30.3288,-87.8293,1.85,8.8,1111122 
DISL,ioos:station:DISL:BSCA:1,2015-01-05T09:00:00Z,30.3288,-87.8293,1.791,9.09,1111122 
DISL,ioos:station:DISL:BSCA:1,2015-01-05T09:30:00Z,30.3288,-87.8293,1.724,9.05,1111122 
DISL,ioos:station:DISL:BSCA:1,2015-01-05T10:00:00Z,30.3288,-87.8293,1.687,9.16,1111122 
DISL,ioos:station:DISL:BSCA:1,2015-01-05T10:30:00Z,30.3288,-87.8293,1.642,8.88,1111122 
DISL,ioos:station:DISL:BSCA:1,2015-01-05T11:00:00Z,30.3288,-87.8293,1.611,8.94,1111122 
DISL,ioos:station:DISL:BSCA:1,2015-01-05T11:30:00Z,30.3288,-87.8293,1.602,9.14,1111122 
DISL,ioos:station:DISL:BSCA:1,2015-01-05T12:00:00Z,30.3288,-87.8293,1.589,9.03,1111122 
DISL,ioos:station:DISL:BSCA:1,2015-01-05T12:30:00Z,30.3288,-87.8293,1.559,9.09,1111122 
DISL,ioos:station:DISL:BSCA:1,2015-01-05T13:00:00Z,30.3288,-87.8293,1.549,8.98,1111122 
DISL,ioos:station:DISL:BSCA:1,2015-01-05T13:30:00Z,30.3288,-87.8293,1.526,9.55,1111122 
DISL,ioos:station:DISL:BSCA:1,2015-01-05T14:00:00Z,30.3288,-87.8293,1.517,9.19,1111122 
DISL,ioos:station:DISL:BSCA:1,2015-01-05T14:30:00Z,30.3288,-87.8293,1.508,8.94,1111122 
DISL,ioos:station:DISL:BSCA:1,2015-01-05T15:00:00Z,30.3288,-87.8293,1.516,9.17,1111122 
DISL,ioos:station:DISL:BSCA:1,2015-01-05T15:30:00Z,30.3288,-87.8293,1.51,9.02,1111122 
DISL,ioos:station:DISL:BSCA:1,2015-01-05T16:00:00Z,30.3288,-87.8293,1.503,9.07,1111122 
DISL,ioos:station:DISL:BSCA:1,2015-01-05T16:30:00Z,30.3288,-87.8293,1.541,9.02,1111122 
DISL,ioos:station:DISL:BSCA:1,2015-01-05T17:00:00Z,30.3288,-87.8293,1.547,9.06,1111122 
DISL,ioos:station:DISL:BSCA:1,2015-01-05T17:30:00Z,30.3288,-87.8293,1.551,9.34,1111122 
DISL,ioos:station:DISL:BSCA:1,2015-01-05T18:00:00Z,30.3288,-87.8293,1.561,11.25,1111122 
DISL,ioos:station:DISL:BSCA:1,2015-01-05T18:30:00Z,30.3288,-87.8293,1.593,10.17,1111122 
DISL,ioos:station:DISL:BSCA:1,2015-01-05T19:00:00Z,30.3288,-87.8293,1.618,9.19,1111122 
DISL,ioos:station:DISL:BSCA:1,2015-01-05T19:30:00Z,30.3288,-87.8293,1.66,9.18,1111122 
DISL,ioos:station:DISL:BSCA:1,2015-01-05T20:00:00Z,30.3288,-87.8293,1.681,9.71,1111122 
DISL,ioos:station:DISL:BSCA:1,2015-01-05T20:30:00Z,30.3288,-87.8293,1.738,8.84,1111122 
DISL,ioos:station:DISL:BSCA:1,2015-01-05T21:00:00Z,30.3288,-87.8293,1.765,8.8,1111122 
DISL,ioos:station:DISL:BSCA:1,2015-01-05T21:30:00Z,30.3288,-87.8293,1.787,8.67,1111122 
DISL,ioos:station:DISL:BSCA:1,2015-01-05T22:00:00Z,30.3288,-87.8293,1.816,8.63,1111122 
DISL,ioos:station:DISL:BSCA:1,2015-01-05T22:30:00Z,30.3288,-87.8293,1.83,9.42,1111122 
DISL,ioos:station:DISL:BSCA:1,2015-01-05T23:00:00Z,30.3288,-87.8293,1.847,9.47,1111122 
DISL,ioos:station:DISL:BSCA:1,2015-01-05T23:30:00Z,30.3288,-87.8293,1.887,7.47,1111122 
DISL,ioos:station:DISL:BSCA:1,2015-01-06T00:00:00Z,30.3288,-87.8293,1.917,8.08,1111122 
DISL,ioos:station:DISL:BSCA:1,2015-01-06T00:30:00Z,30.3288,-87.8293,1.956,7.77,1111122 
DISL,ioos:station:DISL:BSCA:1,2015-01-06T01:00:00Z,30.3288,-87.8293,1.988,7.79,1111122 
DISL,ioos:station:DISL:BSCA:1,2015-01-06T01:30:00Z,30.3288,-87.8293,2.015,7.71,1111122 
DISL,ioos:station:DISL:BSCA:1,2015-01-06T02:00:00Z,30.3288,-87.8293,2.044,7.77,1111122 
DISL,ioos:station:DISL:BSCA:1,2015-01-06T02:30:00Z,30.3288,-87.8293,2.065,7.67,1111122 
DISL,ioos:station:DISL:BSCA:1,2015-01-06T03:00:00Z,30.3288,-87.8293,2.077,7.36,1111122 
DISL,ioos:station:DISL:BSCA:1,2015-01-06T03:30:00Z,30.3288,-87.8293,2.075,7.47,1111122 
DISL,ioos:station:DISL:BSCA:1,2015-01-06T04:00:00Z,30.3288,-87.8293,2.074,7.42,1111122 
DISL,ioos:station:DISL:BSCA:1,2015-01-06T04:30:00Z,30.3288,-87.8293,2.051,7.56,1111122 
DISL,ioos:station:DISL:BSCA:1,2015-01-06T05:00:00Z,30.3288,-87.8293,2.046,7.68,1111122 
DISL,ioos:station:DISL:BSCA:1,2015-01-06T05:30:00Z,30.3288,-87.8293,2.041,7.38,1111122 
DISL,ioos:station:DISL:BSCA:1,2015-01-06T06:00:00Z,30.3288,-87.8293,2.042,7.55,1111122 
DISL,ioos:station:DISL:BSCA:1,2015-01-06T06:30:00Z,30.3288,-87.8293,2.028,7.66,1111122 
DISL,ioos:station:DISL:BSCA:1,2015-01-06T07:00:00Z,30.3288,-87.8293,1.999,7.71,1111122 
DISL,ioos:station:DISL:BSCA:1,2015-01-06T07:30:00Z,30.3288,-87.8293,1.965,7.84,1111122 
DISL,ioos:station:DISL:BSCA:1,2015-01-06T08:00:00Z,30.3288,-87.8293,1.94,7.7,1111122 
DISL,ioos:station:DISL:BSCA:1,2015-01-06T08:30:00Z,30.3288,-87.8293,1.917,7.61,1111122 
DISL,ioos:station:DISL:BSCA:1,2015-01-06T09:00:00Z,30.3288,-87.8293,1.87,8.79,1111122 
DISL,ioos:station:DISL:BSCA:1,2015-01-06T09:30:00Z,30.3288,-87.8293,1.836,8.79,1111122 
DISL,ioos:station:DISL:BSCA:1,2015-01-06T10:00:00Z,30.3288,-87.8293,1.778,9.07,1111122 
DISL,ioos:station:DISL:BSCA:1,2015-01-06T10:30:00Z,30.3288,-87.8293,1.681,21.51,1111122 
DISL,ioos:station:DISL:BSCA:1,2015-01-06T11:00:00Z,30.3288,-87.8293,1.687,8.31,1111122 
DISL,ioos:station:DISL:BSCA:1,2015-01-06T11:30:00Z,30.3288,-87.8293,1.644,8.44,1111122 
DISL,ioos:station:DISL:BSCA:1,2015-01-06T12:00:00Z,30.3288,-87.8293,1.618,9.45,1111122 
DISL,ioos:station:DISL:BSCA:1,2015-01-06T12:30:00Z,30.3288,-87.8293,1.603,8.7,1111122 
DISL,ioos:station:DISL:BSCA:1,2015-01-06T13:00:00Z,30.3288,-87.8293,1.577,9.53,1111122 
DISL,ioos:station:DISL:BSCA:1,2015-01-06T13:30:00Z,30.3288,-87.8293,1.579,9.22,1111122 
DISL,ioos:station:DISL:BSCA:1,2015-01-06T14:00:00Z,30.3288,-87.8293,1.574,8.74,1111122 
DISL,ioos:station:DISL:BSCA:1,2015-01-06T14:30:00Z,30.3288,-87.8293,1.549,9.97,1111122 
DISL,ioos:station:DISL:BSCA:1,2015-01-06T15:00:00Z,30.3288,-87.8293,1.529,9.66,1111122 
DISL,ioos:station:DISL:BSCA:1,2015-01-06T15:30:00Z,30.3288,-87.8293,1.503,10.6,1111122 